Location: Unspecified
(0.0000°N, 0.0000°E)
Time: 07:34:24
(UTC+00:00)

NANOACE - Visible Passes

Search period start: 10 June 2023 00:00
Search period end: 20 June 2023 00:00
Orbit: 570 x 583 km, 97.4° (Epoch: 09 June)

Date Brightness Start Highest point End Pass type
(mag) Time Alt. Az. Time Alt. Az. Time Alt. Az.
10 Jun ? 18:21:44 10° NE 18:25:00 24° ESE 18:28:18 10° SSE visible
10 Jun ? 19:58:37 10° WNW 20:00:02 12° WNW 20:01:26 10° W visible
11 Jun ? 18:25:29 10° NE 18:28:56 27° E 18:32:24 10° SSE visible
12 Jun ? 18:29:16 10° NE 18:32:51 31° E 18:36:29 10° SSE visible
13 Jun ? 18:33:03 10° NE 18:36:46 36° E 18:40:31 10° SSE visible
14 Jun ? 18:36:51 10° NNE 18:40:41 42° E 18:44:32 10° S visible
15 Jun ? 18:40:41 10° NNE 18:44:36 48° ESE 18:48:31 10° S visible
16 Jun ? 18:44:31 10° NNE 18:48:29 56° E 18:52:28 10° S visible
17 Jun ? 18:48:21 10° NNE 18:52:22 66° E 18:56:24 10° S visible
18 Jun ? 18:52:12 10° NNE 18:56:15 77° ESE 19:00:18 10° S visible
19 Jun ? 18:56:04 10° NNE 19:00:07 89° E 19:04:11 10° S visible
